Simultaneous Nadir Overpasses (SNOs) Predictions

Prediction of SNOs between GOES-14 and NOAA-20 Satellite Orbit:

Table of predicted SNOs for the next 14.0 days since TLE Epoch: 6/10/2023
Index Date Time (GOES-14) GOES-14 Lat,Lon NOAA-20 Lat,Lon Distance(km) Time Diff (sec)
1 06/10/2023 20:24:37 -0.04,-108.63 0.91,-104.46 475.43 80
2 06/12/2023 08:43:46 0.00,-108.69 0.24,-109.74 119.68 80
3 06/13/2023 08:27:42 0.02,-108.69 -0.74,-105.21 396.25 80
4 06/14/2023 20:47:00 0.02,-108.62 -0.41,-110.53 217.94 80
5 06/15/2023 20:30:56 0.00,-108.62 0.57,-106.00 298.55 80
6 06/17/2023 08:50:05 -0.04,-108.69 0.56,-111.28 295.47 80
7 06/18/2023 08:34:01 -0.03,-108.69 -0.48,-106.76 220.32 80
8 06/19/2023 20:53:19 0.06,-108.60 -0.71,-112.07 395.45 80
9 06/20/2023 20:37:14 0.05,-108.60 0.28,-107.54 121.07 80
10 06/22/2023 08:56:24 -0.08,-108.69 0.85,-112.82 471.41 80
11 06/23/2023 08:40:19 -0.06,-108.69 -0.14,-108.29 44.68 80
